sat.trackr.live / text

‹ back to catalog

KUIPER-00078

NORAD 64825 · 2025-151K

PAYLOAD ACTIVE UNKNOWN

§ Identity

Operator
Country
US
Launch date
2025-07-16
Launch site
AFETR
Launch vehicle
Mass (kg)
RCS (m²)

External: N2YO · Heavens-Above · Gunter

§ Orbital elements

Epoch: 2026-05-25T04:12:41.229216Z

Period
97.30 min
Inclination
51.9017°
Eccentricity
0.0000695
Mean motion
14.79938914 rev/d
Perigee alt
629.0 km
Apogee alt
630.0 km
Semi-major
7,007.7 km
B*
3.7938e-4
RAAN
317.3713°
Arg perigee
120.9588°
Mean anomaly
239.1443°
Rev number
4,670

§ Raw data

KUIPER-000781 64825U 25151K   26145.17547719  .00002673  00000+0  37938-3 0  99982 64825  51.9017 317.3713 0000695 120.9588 239.1443 14.79938914 46706

JSON: /api/v1/satellites/64825 · /tle

For live sub-satellite position, see the globe view (requires WebGL).

§ Visibility from observer

Set your observer location to see the next 7 days of passes ≥ 10°. The values pass through the URL so the page stays shareable.

No JS? Fill the form by hand. The geolocation button needs JavaScript.